Tracking 35274 objects as of 10-Sep-2026
HD Live streaming from Space Station
objects crossing your sky now

OPS 0856 DEB

Track OPS 0856 DEB now!
10-day predictions


NORAD ID: 25931
Int'l Code: 1966-077X
Launch date: August 19, 1966
Source: United States (US)
Launch site: AIR FORCE WESTERN TEST RANGE (AFWTR)

Note: This is SATELLITE DEBRIS
Your satellite tracking list
Your tracking list is empty




NASA's NSSDC Master Catalog

Two Line Element Set (TLE):
1 25931U 66077X   24184.50490472  .00001073  00000-0  26860-1 0  9990
2 25931  87.5937   6.9478 2262964 275.6655  82.0415  8.82233511795332
Source of the keplerian elements: AFSPC